Flag for China Weather past 2 weeks in Hohhot, Inner Mongolia, China

Now
70 °F

Scattered clouds.


Feels Like: 70 °F
Forecast: 46 / 76 °F
Wind: 13 mph from Northeast

Location: Hohhot Airport

Current Time: Sep 2, 2014 at 11:42:25 AM

Latest Report: Sep 2, 2014 at 11:00 AM


Visibility: N/A

Pressure: 30.07 "Hg

Humidity: 46%

Dew point: 48 °F

Location of HohhotLocation

Historic Weather in Hohhot — Graph

°F

Hohhot temperature yesterday

Maximum temperature yesterday: 66 °F (at 3:00 AM)
Minimum temperature yesterday: 57 °F (at 7:00 AM)
Average temperature yesterday: 61 °F

Past Weeks' High & Low Weather Summary

 TemperatureHumidityPressure
High86 °F (Aug 20, 5:00 PM)100% (Aug 22, 6:00 AM)30.12 "Hg (Aug 22, 6:00 AM)
Low46 °F (Aug 25, 6:00 AM)24% (Aug 26, 1:00 PM)29.83 "Hg (Aug 21, 3:00 PM)
Average67 °F64%30.00 "Hg
* Reported Aug 18 10:00 AM — Sep 2 10:00 AM, Hohhot, Weather by CustomWeather, © 2014

Note: Actual official high and low records may vary slightly from our data, if they occured in-between our weather recording intervals... More about our weather records

Advertising

Hohhot weather history for previous 24 hours

 ConditionsComfort  
Time TempWeatherWind HumidityBarometerVisibility
10:00 AM
Sep 2
68 °FScattered clouds.10 mph49%30.07 "HgN/A
9:00 AM66 °FPassing clouds.10 mph60%30.04 "HgN/A
8:00 AM61 °FPassing clouds.6 mph68%30.04 "HgN/A
7:00 AM55 °FPassing clouds.3 mph88%30.01 "HgN/A
6:00 AM55 °FScattered clouds.1 mph88%30.01 "HgN/A
5:00 AM55 °FPassing clouds.1 mph88%29.98 "HgN/A
4:00 AM54 °FPassing clouds.1 mph100%29.98 "HgN/A
3:00 AM54 °FPassing clouds.1 mph94%29.98 "HgN/A
2:00 AM55 °FPassing clouds.3 mph94%29.98 "HgN/A
1:00 AM57 °FPassing clouds.3 mph82%29.98 "HgN/A
12:00 AM57 °FPassing clouds.6 mph88%29.98 "HgN/A
11:00 PM
Sep 1
59 °FPassing clouds.6 mph94%30.01 "HgN/A
10:00 PM61 °FPassing clouds.3 mph88%30.01 "HgN/A
9:00 PM59 °FPassing clouds.1 mph94%29.98 "HgN/A
8:00 PM61 °FPassing clouds.1 mph94%29.98 "HgN/A
7:00 PM63 °FScattered clouds.1 mph83%29.98 "HgN/A
6:00 PM63 °FScattered clouds.1 mph83%29.98 "HgN/A
5:00 PM63 °FPartly sunny.3 mph88%29.98 "HgN/A
4:00 PM63 °FBroken clouds.1 mph83%29.98 "HgN/A
3:00 PM61 °FBroken clouds.1 mph94%29.98 "HgN/A
2:00 PM61 °FBroken clouds.6 mph94%29.98 "HgN/A
1:00 PM61 °FLight rain. Broken clouds.1 mph94%30.01 "HgN/A
12:00 PM59 °FLight rain. Broken clouds.3 mph94%30.04 "Hg5 mi
11:00 AM59 °FSprinkles. Partly sunny.6 mph100%30.04 "Hg5 mi
Weather by CustomWeather, © 2014

See weather overviewHow to use our weather pages